sat.trackr.live / text

‹ back to catalog

LYNK TOWER 3

NORAD 55046 · 2023-001AP

PAYLOAD ACTIVE UNKNOWN

§ Identity

Operator
Country
US
Launch date
2023-01-03
Launch site
AFETR
Launch vehicle
Mass (kg)
RCS (m²)

External: N2YO · Heavens-Above · Gunter

§ Orbital elements

Epoch: 2026-05-25T03:44:12.943104Z

Period
93.77 min
Inclination
97.3215°
Eccentricity
0.0007805
Mean motion
15.35737940 rev/d
Perigee alt
453.4 km
Apogee alt
464.1 km
Semi-major
6,836.9 km
B*
3.1091e-4
RAAN
205.5263°
Arg perigee
188.4061°
Mean anomaly
171.7053°
Rev number
18,837

§ Raw data

LYNK TOWER 31 55046U 23001AP  26145.15570536  .00010740  00000+0  31091-3 0  99942 55046  97.3215 205.5263 0007805 188.4061 171.7053 15.35737940188375

JSON: /api/v1/satellites/55046 · /tle

For live sub-satellite position, see the globe view (requires WebGL).

§ Visibility from observer

Set your observer location to see the next 7 days of passes ≥ 10°. The values pass through the URL so the page stays shareable.

No JS? Fill the form by hand. The geolocation button needs JavaScript.

§ Radio — SatNOGS DB

ModeDescriptionDownlinkUplink
BPSK S-band telemetry 2.260 GHz

1 transmitter · refreshed weekly from db.satnogs.org